Location: Chippewa Lake
(41.0698°N, 81.9010°W)
Time: 01:50:17
(UTC+00:00)

Cosmos 2219 - Pass Details

Date: 09 May 2021
Orbit: 832 x 861 km, 71.1° (Epoch: 24 June)

Event Time Altitude Azimuth Distance (km) Brightness Sun altitude
Rises 08:56:04 0° 328° (NNW) 3,420 6.4 -13.6°
Reaches altitude 10° 08:58:40 10° 320° (NW) 2,484 5.6 -13.2°
Maximum altitude 09:03:50 37° 255° (WSW) 1,316 3.7 -12.5°
Drops below altitude 10° 09:09:01 10° 190° (S) 2,484 5.2 -11.7°
Sets 09:11:38 0° 182° (S) 3,419 6.0 -11.3°
